#timestamp,LO_Frequency,Hit,StdDev 
1513562415.9,286047001.8,P
1513562435.7,286047004.4,P
1513562455.6,286047000.6,N
1513562475.4,286047001.4,N
1513562495.2,286047000.6,N
1513562515.1,286046999.5,N
1513562516.0,286046999.5,N
1513562535.8,286047001.8,N
1513562555.7,286047003.8,N
1513562575.5,286047004.4,N
1513562595.3,286047005.9,Y
1513562615.2,286047002.7,P
1513562635.0,286047000.4,N
1513562635.9,286047000.4,N
1513562655.8,286047000.9,N
1513562675.6,286046999.0,N
1513562695.4,286046997.9,N
1513562715.3,286046997.1,N
1513562735.1,286046995.7,N
1513562755.9,286046991.7,Y
1513562775.7,286046993.8,P
1513562795.5,286046998.5,N
1513562815.4,286046995.1,N
1513562835.2,286046996.3,N
1513562855.0,286046993.7,N
1513562856.0,286046993.7,N
1513562875.8,286046990.3,Y
1513562895.6,286046995.8,P
1513562915.5,286047000.4,P
1513562935.3,286047002.5,N
1513562955.1,286046996.7,N
1513562975.9,286046995.3,N
1513562995.7,286046994.6,N
1513563015.6,286046991.7,Y
1513563035.4,286046991.2,P
1513563055.2,286046988.7,P
1513563075.1,286046989.7,N
1513563076.0,286046989.7,Y
1513563095.8,286046996.5,P
1513563115.7,286046997.2,N
1513563135.5,286046995.7,N
1513563155.3,286046999.7,N
1513563175.2,286047002.8,N
1513563195.0,286047005.2,N
1513563195.9,286047005.2,N
1513563215.8,286047006.9,N
1513563235.6,286047003.1,N
1513563255.4,286047007.3,N
1513563275.3,286047007.6,N
1513563295.1,286047006.1,N
1513563315.9,286047006.0,N
1513563335.7,286047004.5,N
1513563355.5,286047003.5,N
1513563375.4,286047006.7,N
1513563395.2,286047001.3,N
1513563415.0,286047001.8,N
1513563415.9,286047001.8,N
1513563435.8,286047001.3,N
1513563455.6,286047000.9,N
1513563475.5,286047000.1,N
1513563495.3,286047002.6,N
1513563515.1,286046999.3,N
1513563535.9,286046999.3,N
1513563555.7,286047001.7,N
1513563575.6,286047003.3,N
1513563595.4,286047003.2,N
1513563615.2,286047005.4,N
1513563635.1,286047004.5,N
1513563636.0,286047004.5,N
1513563655.8,286047004.4,N
1513563675.6,286047005.2,N
1513563695.5,286047006.1,N
1513563715.3,286047009.2,Y
1513563735.2,286047001.7,P
1513563755.9,286047002.5,N
1513563775.7,286047002.9,P
1513563795.6,286047004.3,Y
1513563815.4,286047004.1,P
1513563835.3,286047001.5,N
1513563855.1,286047000.7,N
1513563856.0,286047000.7,N
1513563875.8,286047001.0,N
1513563895.7,286046996.6,N
1513563915.5,286046996.5,N
1513563935.3,286047004.4,N
1513563955.2,286047003.9,N
1513563975.0,286047004.0,N
1513563975.9,286047004.0,N
1513563995.8,286047000.1,N
1513564015.6,286046999.8,N
1513564035.4,286047004.0,N
1513564055.3,286047003.9,N
1513564075.1,286047001.8,N
1513564095.9,286047003.9,N
1513564115.7,286047000.9,N
1513564135.5,286047005.1,N
1513564155.4,286047006.9,N
1513564175.2,286047010.6,Y
1513564195.1,286047004.5,P
1513564196.0,286047004.5,P
1513564215.8,286047004.6,P
1513564235.6,286047002.1,N
1513564255.5,286047005.7,Y
1513564275.3,286047000.3,P
1513564295.1,286047001.6,N
1513564315.9,286047006.0,P
1513564335.7,286047006.5,Y
1513564355.6,286047007.7,P
1513564375.4,286047009.7,P
1513564395.2,286047008.3,N
1513564415.1,286047010.5,Y
1513564416.0,286047010.5,P
1513564435.8,286047002.1,N
1513564455.7,286046996.9,N
1513564475.5,286046995.1,N
1513564495.3,286046993.1,N
1513564515.2,286046993.1,N
1513564535.0,286046992.1,N
1513564535.9,286046992.1,N
1513564555.8,286046996.3,N
1513564575.6,286046993.0,N
1513564595.4,286046990.7,N
1513564615.3,286046992.1,N
1513564635.1,286046995.7,N
1513564655.8,286046999.5,N
1513564675.7,286046993.7,N
1513564695.5,286046996.8,N
1513564715.4,286046997.7,N
1513564735.2,286047002.8,N
1513564755.0,286047004.3,N
1513564755.9,286047004.3,N
1513564775.8,286047002.7,N
1513564795.6,286047001.0,N
1513564815.5,286046997.7,N
1513564835.3,286047000.7,N
1513564855.1,286046997.2,N
1513564875.9,286046991.9,N
1513564895.7,286046993.1,N
1513564915.5,286046991.8,N
1513564935.4,286046992.5,N
1513564955.2,286046994.4,N
1513564975.1,286046991.8,N
1513564976.0,286046991.8,N
1513564995.8,286046993.0,N
1513565015.6,286046992.7,N
1513565035.5,286046988.7,N
1513565055.3,286046990.9,N
1513565075.1,286046994.8,N
1513565095.9,286046991.0,N
1513565115.7,286046989.0,N
1513565135.6,286046989.8,N
1513565155.4,286046989.6,N
1513565175.2,286046991.4,N
1513565195.1,286046993.2,N
1513565196.0,286046993.2,N
1513565215.8,286046990.5,N
1513565235.7,286046992.3,N
1513565255.5,286046988.5,N
1513565275.3,286046989.3,N
1513565295.2,286046986.8,N
1513565315.0,286046986.8,Y
1513565315.9,286046986.8,P
1513565335.8,286046993.2,N
1513565355.6,286046990.9,P
1513565375.4,286046991.7,Y
1513565395.3,286047005.2,P
1513565415.1,286047004.7,N
1513565435.8,286047005.3,N
1513565455.7,286047006.4,N
1513565475.5,286047005.2,N
1513565495.4,286047001.9,N
1513565515.2,286047001.3,N
1513565535.0,286047003.4,N
1513565535.9,286047003.4,N
1513565555.8,286047007.4,N
1513565575.6,286047011.6,N
1513565595.5,286047010.7,N
1513565615.3,286047008.0,N
1513565635.1,286047006.3,N
1513565655.9,286047004.7,N
1513565675.7,286047002.4,N
1513565695.5,286047000.5,N
1513565715.4,286047001.2,N
1513565735.2,286047002.4,N
1513565755.1,286047003.2,N
1513565756.0,286047003.2,N
1513565775.8,286047003.8,N
1513565795.6,286047004.6,N
1513565815.5,286047010.2,N
1513565835.3,286047008.9,N
1513565855.2,286047004.8,N
1513565875.9,286047005.3,N
1513565895.7,286047006.9,N
1513565915.6,286047006.1,N
1513565935.4,286047010.7,N
1513565955.2,286047011.6,Y
1513565975.1,286047004.9,P
1513565976.0,286047004.9,P
1513565995.8,286047007.2,P
